TimeCDT,TemperatureF,Dew PointF,Humidity,Sea Level PressureIn,VisibilityMPH,Wind Direction,Wind SpeedMPH,Gust SpeedMPH,PrecipitationIn,Events,Conditions,WindDirDegrees,DateUTC
12:53 AM,50.0,42.1,74,29.81,10.0,SE,5.8,-,N/A,,Clear,130,2012-10-21 05:53:00
1:53 AM,50.0,42.1,74,29.81,10.0,SE,5.8,-,N/A,,Clear,130,2012-10-21 06:53:00
2:53 AM,48.9,42.1,77,29.82,10.0,SE,6.9,-,N/A,,Clear,130,2012-10-21 07:53:00
3:53 AM,48.9,43.0,80,29.83,10.0,SE,5.8,-,N/A,,Clear,140,2012-10-21 08:53:00
4:53 AM,48.9,43.0,80,29.83,10.0,SE,5.8,-,N/A,,Clear,130,2012-10-21 09:53:00
5:53 AM,48.9,43.0,80,29.84,10.0,SE,6.9,-,N/A,,Clear,130,2012-10-21 10:53:00
6:53 AM,48.0,43.0,83,29.85,10.0,SE,5.8,-,N/A,,Clear,130,2012-10-21 11:53:00
7:53 AM,48.9,44.1,83,29.86,10.0,SE,4.6,-,N/A,,Clear,130,2012-10-21 12:53:00
8:53 AM,54.0,46.0,75,29.87,10.0,SE,4.6,-,N/A,,Clear,130,2012-10-21 13:53:00
9:53 AM,61.0,48.0,62,29.87,10.0,ESE,4.6,-,N/A,,Clear,120,2012-10-21 14:53:00
10:53 AM,69.1,50.0,51,29.87,10.0,SE,6.9,-,N/A,,Clear,140,2012-10-21 15:53:00
11:53 AM,75.9,53.1,45,29.86,10.0,SSE,6.9,-,N/A,,Partly Cloudy,150,2012-10-21 16:53:00
12:53 PM,78.1,55.9,46,29.84,10.0,South,6.9,-,N/A,,Partly Cloudy,180,2012-10-21 17:53:00
1:53 PM,79.0,57.9,48,29.82,10.0,SSE,6.9,-,N/A,,Mostly Cloudy,160,2012-10-21 18:53:00
2:53 PM,80.1,57.9,47,29.80,10.0,SSE,6.9,-,N/A,,Mostly Cloudy,150,2012-10-21 19:53:00
3:53 PM,80.1,60.1,50,29.80,10.0,SSE,11.5,-,N/A,,Overcast,150,2012-10-21 20:53:00
4:53 PM,80.1,59.0,48,29.80,10.0,SSE,4.6,-,N/A,,Overcast,150,2012-10-21 21:53:00
5:53 PM,79.0,60.1,52,29.80,10.0,SSE,6.9,-,N/A,,Overcast,160,2012-10-21 22:53:00
6:53 PM,75.9,62.1,62,29.81,10.0,SE,5.8,-,N/A,,Overcast,140,2012-10-21 23:53:00
7:53 PM,73.0,62.1,68,29.82,10.0,ESE,5.8,-,N/A,,Clear,120,2012-10-22 00:53:00
8:53 PM,72.0,62.1,71,29.82,10.0,ESE,6.9,-,N/A,,Clear,110,2012-10-22 01:53:00
9:53 PM,72.0,62.1,71,29.84,10.0,ESE,6.9,-,N/A,,Mostly Cloudy,110,2012-10-22 02:53:00
10:53 PM,71.1,62.1,73,29.86,10.0,ESE,4.6,-,N/A,,Partly Cloudy,110,2012-10-22 03:53:00
11:53 PM,71.1,63.0,75,29.86,10.0,ESE,4.6,-,N/A,,Overcast,110,2012-10-22 04:53:00